sat.trackr.live / text

‹ back to catalog

COSMOS 2460 (732)

NORAD 36402 · 2010-007C

PAYLOAD ACTIVE UNKNOWN

§ Identity

Operator
Country
CIS
Launch date
2010-03-01
Launch site
TYMSC
Launch vehicle
Mass (kg)
RCS (m²)
4.78

Purposes: nav

External: N2YO · Heavens-Above · Gunter

§ Orbital elements

Epoch: 2026-09-08T05:02:36.878784Z

Period
675.73 min
Inclination
65.3677°
Eccentricity
0.0002316
Mean motion
2.13101570 rev/d
Perigee alt
19,124.0 km
Apogee alt
19,135.8 km
Semi-major
25,508.1 km
B*
0.0000e+0
RAAN
311.6550°
Arg perigee
209.5113°
Mean anomaly
148.1159°
Rev number
12,849

§ Raw data

COSMOS 2460 (732)1 36402U 10007C   26251.21014906 -.00000027  00000+0  00000+0 0  99902 36402  65.3677 311.6550 0002316 209.5113 148.1159  2.13101570128498

JSON: /api/v1/satellites/36402 · /tle

For live sub-satellite position, see the globe view (requires WebGL).

§ Visibility from observer

Set your observer location to see the next 7 days of passes ≥ 10°. The values pass through the URL so the page stays shareable.

No JS? Fill the form by hand. The geolocation button needs JavaScript.